Time,TemperatureF,DewpointF,PressureIn,WindDirection,WindDirectionDegrees,WindSpeedMPH,WindSpeedGustMPH,Humidity,HourlyPrecipIn,Conditions,Clouds,dailyrainin,SoftwareType,DateUTC
2013-10-05 00:04:00,69.8,26.0,29.64,North,359,6.0,-999.0,19,-99.99,,,0.00,weatherlink.com 1.10,2013-10-05 07:04:00,
2013-10-05 00:19:00,70.3,25.0,29.65,North,359,3.0,-999.0,18,-99.99,,,0.00,weatherlink.com 1.10,2013-10-05 07:19:00,
2013-10-05 00:34:00,69.9,24.0,29.65,North,359,1.0,-999.0,18,-99.99,,,0.00,weatherlink.com 1.10,2013-10-05 07:34:00,
2013-10-05 00:49:00,69.6,24.0,29.65,North,359,10.0,-999.0,18,-99.99,,,0.00,weatherlink.com 1.10,2013-10-05 07:49:00,
2013-10-05 01:04:00,69.4,23.0,29.66,North,359,0.0,-999.0,17,-99.99,,,0.00,weatherlink.com 1.10,2013-10-05 08:04:00,
2013-10-05 01:19:00,68.9,22.0,29.66,North,359,0.0,-999.0,17,-99.99,,,0.00,weatherlink.com 1.10,2013-10-05 08:19:00,
2013-10-05 01:34:00,69.1,24.0,29.66,North,359,0.0,-999.0,18,-99.99,,,0.00,weatherlink.com 1.10,2013-10-05 08:34:00,
2013-10-05 01:49:00,69.1,22.0,29.66,North,357,7.0,-999.0,17,-99.99,,,0.00,weatherlink.com 1.10,2013-10-05 08:49:00,
2013-10-05 02:04:00,68.9,22.0,29.67,North,357,5.0,-999.0,17,-99.99,,,0.00,weatherlink.com 1.10,2013-10-05 09:04:00,
2013-10-05 02:19:00,69.1,22.0,29.67,North,359,6.0,-999.0,17,-99.99,,,0.00,weatherlink.com 1.10,2013-10-05 09:19:00,
2013-10-05 02:34:00,68.8,22.0,29.66,North,359,5.0,-999.0,17,-99.99,,,0.00,weatherlink.com 1.10,2013-10-05 09:34:00,
2013-10-05 02:49:00,68.3,23.0,29.67,North,359,2.0,-999.0,18,-99.99,,,0.00,weatherlink.com 1.10,2013-10-05 09:49:00,
2013-10-05 03:04:00,68.1,22.0,29.67,SE,140,0.0,-999.0,17,-99.99,,,0.00,weatherlink.com 1.10,2013-10-05 10:04:00,
2013-10-05 03:19:00,67.1,21.0,29.67,SE,127,0.0,-999.0,17,-99.99,,,0.00,weatherlink.com 1.10,2013-10-05 10:19:00,
2013-10-05 03:34:00,66.4,23.0,29.68,North,357,1.0,-999.0,19,-99.99,,,0.00,weatherlink.com 1.10,2013-10-05 10:34:00,
2013-10-05 03:49:00,66.1,23.0,29.67,North,359,2.0,-999.0,19,-99.99,,,0.00,weatherlink.com 1.10,2013-10-05 10:49:00,
2013-10-05 04:04:00,66.8,22.0,29.68,North,359,5.0,-999.0,18,-99.99,,,0.00,weatherlink.com 1.10,2013-10-05 11:04:00,
2013-10-05 04:19:00,67.3,21.0,29.68,North,359,8.0,-999.0,17,-99.99,,,0.00,weatherlink.com 1.10,2013-10-05 11:19:00,
2013-10-05 04:34:00,66.9,22.0,29.68,NW,326,8.0,-999.0,18,-99.99,,,0.00,weatherlink.com 1.10,2013-10-05 11:34:00,
2013-10-05 04:49:00,66.9,22.0,29.68,North,359,10.0,-999.0,18,-99.99,,,0.00,weatherlink.com 1.10,2013-10-05 11:49:00,
2013-10-05 05:04:00,66.8,22.0,29.69,North,357,8.0,-999.0,18,-99.99,,,0.00,weatherlink.com 1.10,2013-10-05 12:04:00,
2013-10-05 05:19:00,66.3,21.0,29.69,North,357,5.0,-999.0,18,-99.99,,,0.00,weatherlink.com 1.10,2013-10-05 12:19:00,
2013-10-05 05:34:00,66.0,22.0,29.70,North,357,5.0,-999.0,19,-99.99,,,0.00,weatherlink.com 1.10,2013-10-05 12:34:00,
2013-10-05 05:49:00,65.8,21.0,29.70,North,359,6.0,-999.0,18,-99.99,,,0.00,weatherlink.com 1.10,2013-10-05 12:49:00,
2013-10-05 06:04:00,65.6,21.0,29.71,North,359,2.0,-999.0,18,-99.99,,,0.00,weatherlink.com 1.10,2013-10-05 13:04:00,
2013-10-05 06:19:00,65.6,21.0,29.71,North,359,2.0,-999.0,18,-99.99,,,0.00,weatherlink.com 1.10,2013-10-05 13:19:00,
2013-10-05 06:34:00,65.3,21.0,29.71,North,359,7.0,-999.0,18,-99.99,,,0.00,weatherlink.com 1.10,2013-10-05 13:34:00,
2013-10-05 06:49:00,65.8,21.0,29.72,North,359,2.0,-999.0,18,-99.99,,,0.00,weatherlink.com 1.10,2013-10-05 13:49:00,
2013-10-05 07:04:00,66.0,21.0,29.73,North,359,0.0,-999.0,18,-99.99,,,0.00,weatherlink.com 1.10,2013-10-05 14:04:00,
2013-10-05 07:19:00,65.6,22.0,29.73,North,359,0.0,-999.0,19,-99.99,,,0.00,weatherlink.com 1.10,2013-10-05 14:19:00,
2013-10-05 07:34:00,65.8,24.0,29.74,North,357,2.0,-999.0,20,-99.99,,,0.00,weatherlink.com 1.10,2013-10-05 14:34:00,
2013-10-05 07:49:00,66.6,23.0,29.75,North,357,6.0,-999.0,19,-99.99,,,0.00,weatherlink.com 1.10,2013-10-05 14:49:00,
2013-10-05 08:04:00,68.1,24.0,29.75,North,357,10.0,-999.0,19,-99.99,,,0.00,weatherlink.com 1.10,2013-10-05 15:04:00,
2013-10-05 08:19:00,69.9,24.0,29.76,North,359,11.0,-999.0,18,-99.99,,,0.00,weatherlink.com 1.10,2013-10-05 15:19:00,
2013-10-05 08:34:00,70.9,24.0,29.76,North,359,9.0,-999.0,17,-99.99,,,0.00,weatherlink.com 1.10,2013-10-05 15:34:00,
2013-10-05 08:49:00,71.8,23.0,29.77,North,359,10.0,-999.0,16,-99.99,,,0.00,weatherlink.com 1.10,2013-10-05 15:49:00,
2013-10-05 09:04:00,72.5,24.0,29.77,North,359,7.0,-999.0,16,-99.99,,,0.00,weatherlink.com 1.10,2013-10-05 16:04:00,
2013-10-05 09:19:00,73.5,26.0,29.77,North,357,7.0,-999.0,17,-99.99,,,0.00,weatherlink.com 1.10,2013-10-05 16:19:00,
2013-10-05 09:34:00,74.4,25.0,29.77,North,359,6.0,-999.0,16,-99.99,,,0.00,weatherlink.com 1.10,2013-10-05 16:34:00,
2013-10-05 09:49:00,75.4,25.0,29.78,North,359,8.0,-999.0,15,-99.99,,,0.00,weatherlink.com 1.10,2013-10-05 16:49:00,
2013-10-05 10:04:00,76.3,25.0,29.78,North,0,11.0,-999.0,15,-99.99,,,0.00,weatherlink.com 1.10,2013-10-05 17:04:00,
2013-10-05 10:19:00,76.8,26.0,29.78,North,357,5.0,-999.0,15,-99.99,,,0.00,weatherlink.com 1.10,2013-10-05 17:19:00,
2013-10-05 10:35:00,77.7,26.0,29.78,North,357,9.0,-999.0,15,-99.99,,,0.00,weatherlink.com 1.10,2013-10-05 17:35:00,
2013-10-05 10:50:00,78.5,25.0,29.78,NW,315,11.0,-999.0,14,-99.99,,,0.00,weatherlink.com 1.10,2013-10-05 17:50:00,
2013-10-05 11:05:00,79.0,26.0,29.78,North,359,9.0,-999.0,14,-99.99,,,0.00,weatherlink.com 1.10,2013-10-05 18:05:00,
2013-10-05 11:20:00,79.9,25.0,29.77,North,359,8.0,-999.0,13,-99.99,,,0.00,weatherlink.com 1.10,2013-10-05 18:20:00,
2013-10-05 11:35:00,80.3,25.0,29.77,North,357,4.0,-999.0,13,-99.99,,,0.00,weatherlink.com 1.10,2013-10-05 18:35:00,
2013-10-05 11:50:00,80.7,25.0,29.77,North,359,5.0,-999.0,13,-99.99,,,0.00,weatherlink.com 1.10,2013-10-05 18:50:00,
2013-10-05 12:05:00,80.9,26.0,29.77,North,0,6.0,-999.0,13,-99.99,,,0.00,weatherlink.com 1.10,2013-10-05 19:05:00,
2013-10-05 12:20:00,81.2,28.0,29.76,North,357,7.0,-999.0,14,-99.99,,,0.00,weatherlink.com 1.10,2013-10-05 19:20:00,
2013-10-05 12:35:00,81.6,26.0,29.75,North,357,6.0,-999.0,13,-99.99,,,0.00,weatherlink.com 1.10,2013-10-05 19:35:00,
2013-10-05 12:50:00,82.6,25.0,29.75,North,359,11.0,-999.0,12,-99.99,,,0.00,weatherlink.com 1.10,2013-10-05 19:50:00,
2013-10-05 13:05:00,82.6,27.0,29.74,North,359,6.0,-999.0,13,-99.99,,,0.00,weatherlink.com 1.10,2013-10-05 20:05:00,
2013-10-05 13:20:00,83.4,26.0,29.73,North,359,14.0,-999.0,12,-99.99,,,0.00,weatherlink.com 1.10,2013-10-05 20:20:00,
2013-10-05 13:35:00,84.1,26.0,29.73,North,359,8.0,-999.0,12,-99.99,,,0.00,weatherlink.com 1.10,2013-10-05 20:35:00,
2013-10-05 13:50:00,84.0,28.0,29.72,North,359,6.0,-999.0,13,-99.99,,,0.00,weatherlink.com 1.10,2013-10-05 20:50:00,
2013-10-05 14:05:00,84.9,25.0,29.71,North,359,7.0,-999.0,11,-99.99,,,0.00,weatherlink.com 1.10,2013-10-05 21:05:00,
2013-10-05 14:20:00,85.1,23.0,29.71,North,356,2.0,-999.0,10,-99.99,,,0.00,weatherlink.com 1.10,2013-10-05 21:20:00,
2013-10-05 14:35:00,85.5,23.0,29.70,WNW,302,8.0,-999.0,10,-99.99,,,0.00,weatherlink.com 1.10,2013-10-05 21:35:00,
2013-10-05 14:50:00,84.3,22.0,29.70,WSW,241,9.0,-999.0,10,-99.99,,,0.00,weatherlink.com 1.10,2013-10-05 21:50:00,
2013-10-05 15:05:00,84.5,22.0,29.69,North,356,9.0,-999.0,10,-99.99,,,0.00,weatherlink.com 1.10,2013-10-05 22:05:00,
2013-10-05 15:20:00,85.3,23.0,29.69,North,357,9.0,-999.0,10,-99.99,,,0.00,weatherlink.com 1.10,2013-10-05 22:20:00,
2013-10-05 15:35:00,84.9,22.0,29.69,North,359,6.0,-999.0,10,-99.99,,,0.00,weatherlink.com 1.10,2013-10-05 22:35:00,
2013-10-05 15:50:00,85.3,23.0,29.68,North,357,8.0,-999.0,10,-99.99,,,0.00,weatherlink.com 1.10,2013-10-05 22:50:00,
2013-10-05 16:05:00,85.5,23.0,29.68,North,357,11.0,-999.0,10,-99.99,,,0.00,weatherlink.com 1.10,2013-10-05 23:05:00,
2013-10-05 16:20:00,85.3,20.0,29.68,North,357,7.0,-999.0,9,-99.99,,,0.00,weatherlink.com 1.10,2013-10-05 23:20:00,
2013-10-05 16:35:00,84.7,20.0,29.68,NNE,14,7.0,-999.0,9,-99.99,,,0.00,weatherlink.com 1.10,2013-10-05 23:35:00,
2013-10-05 16:50:00,84.1,19.0,29.68,SE,138,6.0,-999.0,9,-99.99,,,0.00,weatherlink.com 1.10,2013-10-05 23:50:00,
2013-10-05 17:05:00,84.5,22.0,29.67,North,359,7.0,-999.0,10,-99.99,,,0.00,weatherlink.com 1.10,2013-10-06 00:05:00,
2013-10-05 17:20:00,84.0,22.0,29.67,North,359,6.0,-999.0,10,-99.99,,,0.00,weatherlink.com 1.10,2013-10-06 00:20:00,
2013-10-05 17:35:00,83.2,21.0,29.67,North,359,7.0,-999.0,10,-99.99,,,0.00,weatherlink.com 1.10,2013-10-06 00:35:00,
2013-10-05 17:50:00,82.4,21.0,29.67,North,359,8.0,-999.0,10,-99.99,,,0.00,weatherlink.com 1.10,2013-10-06 00:50:00,
2013-10-05 18:05:00,81.4,22.0,29.67,North,359,5.0,-999.0,11,-99.99,,,0.00,weatherlink.com 1.10,2013-10-06 01:05:00,
2013-10-05 18:20:00,80.1,21.0,29.67,North,359,7.0,-999.0,11,-99.99,,,0.00,weatherlink.com 1.10,2013-10-06 01:20:00,
2013-10-05 18:35:00,79.4,20.0,29.67,North,359,6.0,-999.0,11,-99.99,,,0.00,weatherlink.com 1.10,2013-10-06 01:35:00,
2013-10-05 18:50:00,78.5,22.0,29.67,North,357,11.0,-999.0,12,-99.99,,,0.00,weatherlink.com 1.10,2013-10-06 01:50:00,
2013-10-05 19:05:00,78.1,21.0,29.68,North,357,7.0,-999.0,12,-99.99,,,0.00,weatherlink.com 1.10,2013-10-06 02:05:00,
2013-10-05 19:20:00,77.7,21.0,29.68,North,357,5.0,-999.0,12,-99.99,,,0.00,weatherlink.com 1.10,2013-10-06 02:20:00,
2013-10-05 19:35:00,76.8,22.0,29.68,North,357,4.0,-999.0,13,-99.99,,,0.00,weatherlink.com 1.10,2013-10-06 02:35:00,
2013-10-05 19:50:00,76.1,22.0,29.68,North,357,7.0,-999.0,13,-99.99,,,0.00,weatherlink.com 1.10,2013-10-06 02:50:00,
2013-10-05 20:05:00,76.0,22.0,29.68,North,357,6.0,-999.0,13,-99.99,,,0.00,weatherlink.com 1.10,2013-10-06 03:05:00,
2013-10-05 20:20:00,75.4,23.0,29.68,North,359,5.0,-999.0,14,-99.99,,,0.00,weatherlink.com 1.10,2013-10-06 03:20:00,
2013-10-05 20:35:00,75.3,23.0,29.68,North,359,3.0,-999.0,14,-99.99,,,0.00,weatherlink.com 1.10,2013-10-06 03:35:00,
2013-10-05 20:50:00,74.2,25.0,29.68,North,359,2.0,-999.0,16,-99.99,,,0.00,weatherlink.com 1.10,2013-10-06 03:50:00,
2013-10-05 21:05:00,73.0,27.0,29.68,North,359,4.0,-999.0,18,-99.99,,,0.00,weatherlink.com 1.10,2013-10-06 04:05:00,
2013-10-05 21:20:00,72.5,27.0,29.69,North,359,4.0,-999.0,18,-99.99,,,0.00,weatherlink.com 1.10,2013-10-06 04:20:00,
2013-10-05 21:35:00,75.1,24.0,29.69,North,356,10.0,-999.0,15,-99.99,,,0.00,weatherlink.com 1.10,2013-10-06 04:35:00,
2013-10-05 21:50:00,76.8,22.0,29.68,North,359,8.0,-999.0,13,-99.99,,,0.00,weatherlink.com 1.10,2013-10-06 04:50:00,
2013-10-05 22:05:00,75.6,23.0,29.69,North,359,0.0,-999.0,14,-99.99,,,0.00,weatherlink.com 1.10,2013-10-06 05:05:00,
2013-10-05 22:20:00,73.7,23.0,29.69,North,359,1.0,-999.0,15,-99.99,,,0.00,weatherlink.com 1.10,2013-10-06 05:20:00,
2013-10-05 22:35:00,73.0,23.0,29.69,North,359,1.0,-999.0,15,-99.99,,,0.00,weatherlink.com 1.10,2013-10-06 05:35:00,
2013-10-05 22:50:00,72.8,22.0,29.69,North,359,0.0,-999.0,15,-99.99,,,0.00,weatherlink.com 1.10,2013-10-06 05:50:00,
2013-10-05 23:05:00,71.6,23.0,29.69,North,359,0.0,-999.0,16,-99.99,,,0.00,weatherlink.com 1.10,2013-10-06 06:05:00,
2013-10-05 23:20:00,70.4,23.0,29.69,North,359,0.0,-999.0,17,-99.99,,,0.00,weatherlink.com 1.10,2013-10-06 06:20:00,
2013-10-05 23:35:00,69.6,23.0,29.69,North,359,0.0,-999.0,17,-99.99,,,0.00,weatherlink.com 1.10,2013-10-06 06:35:00,
2013-10-05 23:50:00,69.6,23.0,29.69,North,359,0.0,-999.0,17,-99.99,,,0.00,weatherlink.com 1.10,2013-10-06 06:50:00,